Tracking 30995 objects as of 7-Jul-2025
HD Live streaming from Space Station
objects crossing your sky now

FENGYUN 1C DEB

Track FENGYUN 1C DEB now!
10-day predictions


NORAD ID: 30542
Int'l Code: 1999-025AKG
Perigee: 856.1 km
Apogee: 898.3 km
Inclination: 98.8 °
Period: 102.4 minutes
Semi major axis: 7248 km
RCS: 0.0234 m2 (small)
Launch date: May 10, 1999
Source: People's Republic of China (PRC)
Launch site: Taiyaun Space Center, China (TSC)

Note: This is SATELLITE DEBRIS
Your satellite tracking list
Your tracking list is empty




NASA's NSSDC Master Catalog

Two Line Element Set (TLE):
1 30542U 99025AKG 25187.62387087  .00000327  00000-0  22137-3 0  9993
2 30542  98.8039 220.6858 0029069  61.4364  62.8556 14.06877059946811
Source of the keplerian elements: AFSPC